Regional Weather Roundup
Issued by NWS

Home | Current Version | Previous Version | Graphics & Text | Print | Product List | Glossary Off
Versions: 1 2 3 4 5 6 7 8 9 10 11 12 13 14 15 16 17 18 19 20 21 22 23 24 25 26 27 28 29 30 31 32 33 34 35 36 37 38 39 40 41 42 43 44 45 46 47 48 49 50

000
ASUS43 KMPX 231001
RWRMN
WEATHER ROUNDUP FOR MINNESOTA
NATIONAL WEATHER SERVICE TWIN CITIES/CHANHASSEN MN
500 AM CDT SAT MAY 23 2015


NOTE: "FAIR" INDICATES FEW OR NO CLOUDS BELOW 12,000 FEET WITH NO
SIGNIFICANT WEATHER AND/OR OBSTRUCTIONS TO VISIBILITY. N/A MEANS
CURRENT SKY AND/OR WEATHER CONDITIONS ARE NOT AVAILABLE.

MNZ060>063-068>070-231100-
   Twin Cities Metro

CITY           SKY/WX    TMP DP  RH WIND       PRES   REMARKS
TWIN CITIES    MOCLDY    52  41  66 CALM      30.22S
ST PAUL        CLEAR     49  45  86 E5        30.23R
CRYSTAL        CLEAR     47  40  76 CALM      30.21S
BLAINE         CLEAR     46  41  81 E3        30.22S
LAKEVILLE      PTCLDY    46  41  81 CALM      30.22S
EDEN PRAIRIE   CLEAR     51  41  68 CALM      30.21S
SOUTH ST PAUL  CLEAR     49  44  81 CALM      30.22S
LAKE ELMO      FAIR      45  43  93 CALM      30.24R
$$
MNZ001>005-007-008-013>017-022>024-027-028-231100-
   Northwest Minnesota

CITY           SKY/WX    TMP DP  RH WIND       PRES   REMARKS
BEMIDJI        CLEAR     49  41  72 SW3       30.18S
HALLOCK        CLEAR     46  43  87 S9        30.12S
ROSEAU         PTCLDY    54  41  62 SW7       30.13S
WARROAD        PTCLDY    54  43  66 SW6       30.13S
THIEF RVR FALL CLEAR     52  36  54 S7        30.16S
CROOKSTON      CLEAR     46  39  76 S8        30.16S
FOSSTON        CLEAR     48  37  66 S6        30.18S
DETROIT LAKES  CLEAR     50  43  76 S3        30.20R
MOORHEAD       CLEAR     50  45  81 S7        30.18R
PARK RAPIDS    CLEAR     48  39  71 CALM      30.19S
MAHNOMEN       FAIR      51  39  63 S7        30.17S
$$
MNZ006-009>011-018-025>026-231100-
   North Central Minnesota

CITY           SKY/WX    TMP DP  RH WIND       PRES   REMARKS
BAUDETTE       PTCLDY    51  39  63 SW7       30.12S
FLAG ISLAND    MOCLDY    61  41  48 W10       30.09R
INTL FALLS     CLEAR     46  37  71 SW6       30.14R
WASKISH        CLEAR     48  43  81 CALM      30.16S
BIG FORK       CLEAR     43  39  87 CALM      30.18S
LONGVILLE      CLEAR     39  37  93 CALM      30.19S
GRAND RAPIDS   CLEAR     43  36  75 CALM      30.19S
CRANE LAKE     CLEAR     37  36  93 CALM      30.16S
ORR            CLEAR     50  36  57 CALM      30.15R
COOK           CLEAR     52  37  58 SW3       30.18R
WALKER         FAIR      49  36  60 CALM      30.19R
$$
MNZ012-019>021-037-231100-
   Northeast Minnesota

CITY           SKY/WX    TMP DP  RH WIND       PRES   REMARKS
DULUTH         CLEAR     55  35  47 W8        30.20S
ELY            CLEAR     50  36  57 CALM      30.17R
HIBBING        CLEAR     36  33  89 S3        30.18S
EVELETH        CLEAR     39  36  87 CALM      30.20R
DULUTH HARBOR  CLEAR     48  39  71 CALM      30.21R
TWO HARBORS    CLEAR     55  41  58 W5        30.17S
SILVER BAY     CLEAR     39  36  87 CALM      30.17R
GRAND MARAIS     N/A     39  33  79 W5        30.14S
G MARAIS ARPRT CLEAR     54  32  43 W9        30.15S
$$
MNZ029>031-032-039>041-046>048-054>057-064-231100-
   West Central Minnesota

CITY           SKY/WX    TMP DP  RH WIND       PRES   REMARKS
FERGUS FALLS   CLEAR     52  43  71 CALM      30.21S
WHEATON        CLEAR     45  39  81 S5        30.23R
MORRIS         CLEAR     46  43  87 SE5       30.21R
ALEXANDRIA     CLEAR     48  42  80 SW5       30.22S
ELBOW LAKE     FAIR      50  45  82 CALM      30.20S
WADENA         CLEAR     48  39  71 SW7       30.20R
GLENWOOD       CLEAR     50  45  81 SW2       30.22S
APPLETON       CLEAR     50  45  81 S5        30.23R
BENSON         CLEAR     46  45  93 CALM      30.22S
ORTONVILLE     CLEAR     48  41  76 S5        30.22R
MADISON        PTCLDY    52  43  71 CALM      30.22S
WILLMAR        FAIR      50  45  81 CALM      30.23S
$$
MNZ033>034-036-042>043-049>051-058-059-231100-
   Central Minnesota

CITY           SKY/WX    TMP DP  RH WIND       PRES   REMARKS
ST CLOUD       CLEAR     43  42  97 CALM      30.21S
SAUK CENTRE    FAIR      46  41  82 CALM      30.22S
PAYNESVILLE    CLEAR     44  41  91 CALM      30.23S
AITKIN         CLEAR     39  36  87 CALM      30.20R HAZE
PINE RIVER     CLEAR     39  37  93 CALM      30.23S
BRAINERD       CLEAR     41  39  93 CALM      30.21S
STAPLES        CLEAR     43  39  87 CALM      30.20S
LONG PRAIRIE   FAIR      46  41  81 SW3       30.22R
LITTLE FALLS   CLEAR     41  37  87 CALM      30.21S
LITCHFIELD     CLEAR     55  45  67 NW3       30.22S
BUFFALO        CLEAR     47  42  82 CALM      30.23R
MAPLE LAKE     CLEAR     46  42  88 CALM      30.22S
$$
MNZ037-044-045-052-053-231100-
   East Central Minnesota

CITY           SKY/WX    TMP DP  RH WIND       PRES   REMARKS
PRINCETON      CLEAR     43  39  87 CALM      30.22S
MORA           CLEAR     37  37 100 CALM      30.24S
CAMBRIDGE      CLEAR     48  37  66 CALM      30.20S
RUSH CITY      CLEAR     40  39  95 CALM      30.23R
MOOSE LAKE     CLEAR     37  37 100 CALM      30.20S FOG
HINCKLEY       FAIR      37  37 100 CALM      30.23S
CLOQUET        CLEAR     54  34  47 SW8       30.21S
MCGREGOR       CLEAR     43  39  87 CALM      30.21S
$$
MNZ071>073-080-081-089-090-097-098-231100-
   Southwest Minnesota

CITY           SKY/WX    TMP DP  RH WIND       PRES   REMARKS
MONTEVIDEO     PTCLDY    52  46  82 CALM      30.24S
GRANITE FALLS  PTCLDY    51  44  75 CALM      30.24S
CANBY          MOCLDY    50  44  79 CALM      30.23S
MARSHALL       MOCLDY    54  43  66 SE3       30.22F
REDWOOD FALLS  MOCLDY    54  44  69 SW3       30.24R
OLIVIA         PTCLDY    46  41  81 CALM      30.23R
PIPESTONE      CLOUDY    55  45  67 SE8       30.21S
WINDOM         LGT RAIN  57  45  62 CALM      30.25S
WORTHINGTON    CLOUDY    54  45  71 SE6       30.22S
JACKSON        LGT RAIN  54  50  87 NE8       30.23F
TRACY          CLOUDY    56  46  71 E3        30.23F
SLAYTON        CLOUDY    55  45  68 CALM      30.24R
$$
MNZ065>067-074>077-082>085-091>093-231100-
   South Central Minnesota

CITY           SKY/WX    TMP DP  RH WIND       PRES   REMARKS
MANKATO        MOCLDY    55  43  62 CALM      30.24R
NEW ULM        MOCLDY    52  45  76 CALM      30.23S
ST JAMES       CLOUDY    55  46  71 CALM      30.25R
FAIRMONT       CLOUDY    55  43  62 W8        30.25R
GLENCOE        CLEAR     54  45  72 CALM      30.22R
FARIBAULT      PTCLDY    52  43  71 W5        30.24R
OWATONNA       MOCLDY    52  39  62 W5        30.24R
WASECA         PTCLDY    50  41  71 CALM      30.26R
ALBERT LEA     MOCLDY    57  45  62 CALM      30.25R
$$
MNZ078>079-086>088-094>096-231100-
   Southeast Minnesota

CITY           SKY/WX    TMP DP  RH WIND       PRES   REMARKS
ROCHESTER      MOCLDY    53  42  66 S6        30.24S
RED WING       CLEAR     45  43  93 E3        30.22S
STANTON        FAIR      48  40  72 CALM      30.21R
DODGE CENTER   MOCLDY    52  41  66 CALM      30.23S
WINONA         PTCLDY    48  46  93 CALM      30.24S
AUSTIN         CLOUDY    52  45  76 CALM      30.25R
PRESTON        CLOUDY    52  41  66 CALM      30.24S
$$
ABBREVIATIONS USED IN REMARKS
   TC - TEMPERATURES IN CELSIUS
  WCI - WIND CHILL INDEX
   HX - HEAT INDEX
  VSB - VISIBILITY
$$



USA.gov is the U.S. government's official web portal to all federal, state and local government web resources and services.